sat.trackr.live / text

‹ back to catalog

2024-199K

NORAD 61744 · 2024-199K

PAYLOAD ACTIVE UNKNOWN

§ Identity

Operator
Country
TBD
Launch date
2024-11-04
Launch site
VOSTO
Launch vehicle
Mass (kg)
RCS (m²)

External: N2YO · Heavens-Above · Gunter

§ Orbital elements

Epoch: 2026-05-25T03:31:40.591776Z

Period
92.87 min
Inclination
97.3006°
Eccentricity
0.0008012
Mean motion
15.50527691 rev/d
Perigee alt
409.7 km
Apogee alt
420.6 km
Semi-major
6,793.3 km
B*
4.6683e-4
RAAN
20.0350°
Arg perigee
16.3415°
Mean anomaly
343.8093°
Rev number
13,079

§ Raw data

2024-199K1 61744U 24199K   26145.14699759  .00026642  00000+0  46683-3 0  99942 61744  97.3006  20.0350 0008012  16.3415 343.8093 15.50527691130791

JSON: /api/v1/satellites/61744 · /tle

For live sub-satellite position, see the globe view (requires WebGL).

§ Visibility from observer

Set your observer location to see the next 7 days of passes ≥ 10°. The values pass through the URL so the page stays shareable.

No JS? Fill the form by hand. The geolocation button needs JavaScript.